User: anonymous   Login
Location: Melbourne
(37.8170°S, 144.9670°E)
Time: 19:08:25
(UTC+11:00)
Language:

ERBS - Orbit

View from above orbital plane
View from above orbital plane
View from above satellite
View from above satellite

Ground track
Ground track

The orbit data is extracted from the following two-line orbital elements,

1 15354U 84108B   17054.51837744  .00003910  00000-0  96834-4 0  9992
2 15354  57.0075 267.5031 0006445 230.1368 129.9120 15.42834973780656
Epoch (UTC): 23 February 2017 12:26:27
Eccentricity: 0.0006445
inclination: 57.0075°
perigee height: 433 km
apogee height: 442 km
right ascension of ascending node: 267.5031°
argument of perigee: 230.1368°
revolutions per day: 15.42834973
mean anomaly at epoch: 129.9120°
orbit number at epoch: 78065

The dashed part of the orbit path shows where the satellite is in the earth's shadow,  

DLR